GPS Operational
NORAD ID: 25030
Int'l Code: 1997-067A
Perigee: 19,844.1 km
Apogee: 20,535.5 km
Inclination: 57.2 °
Period: 718.0 minutes
Semi major axis: 26560 km
Launch date: November 6, 1997
Source: United States (US)
PRN: 8
Two Line Element Set (TLE):
1 25030U 97067A 13139.98676620 -.00000045 00000-0 00000+0 0 4286
2 25030 057.1936 346.4104 0130162 196.0032 304.6295 02.00558535113859
Source: AFSPC
NASA's NSSDC Master Catalog entry for NAVSTAR 44 (USA 135)